Weather History for Norfolk, NE

Change the Weather History Date:

Sunday, April 1, 2012

  Actual Average Record
Temperature  
Mean Temperature 71 °F 44 °F  
Max Temperature 92 °F 56 °F 92 °F (2012)
Min Temperature 50 °F 32 °F 2 °F (1924)
Degree Days  
Heating Degree Days 0 21  
Month to date heating degree days 0 21  
Since 1 July heating degree days 4995 5970  
Cooling Degree Days 6 0  
Month to date cooling degree days 6 0  
Year to date cooling degree days 27 0  
Growing Degree Days 21 (Base 50)    
Moisture  
Dew Point 52 °F    
Average Humidity 54    
Maximum Humidity 84    
Minimum Humidity 23    
Precipitation  
Precipitation 0.00 in 0.07 in 1.44 in (1960)
Month to date precipitation 0.00 0.07  
Year to date precipitation 2.49 3.19  
Snow  
Snow 0.00 in 0.20 in - ()
Month to date snowfall 0.0 0.2  
Since 1 July snowfall 15.3 28.1  
Snow Depth 0.00 in    
Sea Level Pressure  
Sea Level Pressure 29.44 in    
Wind  
Wind Speed 13 mph (SSE)    
Max Wind Speed 28 mph    
Max Gust Speed 35 mph    
Visibility 9 miles    
Events      
T = Trace of Precipitation, MM = Missing Value Source: NWS Daily Summary

Daily Weather History Graph

Daily Weather History Graph

Search for Another Location

Airport:

Trip Planner

Search our weather history database for the weather conditions in past years. The results will help you decide how hot, cold, wet, or windy it might be!

Date:

Astronomy

Apr. 01, 2012 Rise Set
Actual Time 7:11 AM CDT 7:55 PM CDT
Civil Twilight 6:43 AM CDT 8:24 PM CDT
Nautical Twilight 6:10 AM CDT 8:57 PM CDT
Astronomical Twilight 5:35 AM CDT 9:32 PM CDT
Moon 2:22 PM CDT (4/1) 3:54 AM CDT (4/1)
Length of Visible Light 13h 40m
Length of Day
12h 44m
Waxing Gibbous, 69% of the Moon is Illuminated
Apr 1
Waxing Gibbous
Apr 6
Full
Apr 13
Last Quarter
Apr 21
New
Apr 29
First Quarter

Hourly Weather History & Observations

Time (CDT) Temp. Heat Index Dew Point Humidity Pressure Visibility Wind Dir Wind Speed Gust Speed Precip Events Conditions
12:56 AM 55.0 °F - 39.0 °F 55% 29.60 in 10.0 mi Calm Calm - N/A   Clear
1:56 AM 55.0 °F - 39.9 °F 57% 29.58 in 10.0 mi NE 3.5 mph - N/A   Clear
2:56 AM 52.0 °F - 39.9 °F 63% 29.58 in 10.0 mi SE 3.5 mph - N/A   Clear
3:56 AM 51.1 °F - 39.9 °F 66% 29.56 in 10.0 mi Calm Calm - N/A   Clear
5:56 AM 60.1 °F - 53.1 °F 78% 29.52 in 9.0 mi South 13.8 mph - N/A   Clear
6:56 AM 61.0 °F - 55.0 °F 81% 29.51 in 8.0 mi South 15.0 mph - N/A   Clear
8:56 AM 66.0 °F - 57.9 °F 75% 29.51 in 6.0 mi South 6.9 mph - N/A   Haze
9:56 AM 70.0 °F - 59.0 °F 68% 29.51 in 7.0 mi South 12.7 mph - N/A   Clear
10:56 AM 75.0 °F - 59.0 °F 57% 29.49 in 9.0 mi South 15.0 mph 21.9 mph N/A   Clear
11:56 AM 79.0 °F - 59.0 °F 50% 29.47 in 10.0 mi South 16.1 mph - N/A   Clear
1:56 PM 86.0 °F 84.7 °F 55.9 °F 36% 29.40 in 10.0 mi South 20.7 mph 31.1 mph N/A   Clear
2:56 PM 90.0 °F - 52.0 °F 27% 29.36 in 10.0 mi South 23.0 mph 31.1 mph N/A   Clear
3:56 PM 91.9 °F - 50.0 °F 24% 29.34 in 10.0 mi SSE 21.9 mph 29.9 mph N/A   Clear
4:56 PM 91.0 °F - 48.9 °F 23% 29.33 in 10.0 mi South 23.0 mph 33.4 mph N/A   Clear
5:56 PM 88.0 °F - 52.0 °F 29% 29.33 in 10.0 mi South 20.7 mph 34.5 mph N/A   Clear
6:56 PM 84.0 °F 83.0 °F 55.9 °F 38% 29.33 in 10.0 mi South 17.3 mph 24.2 mph N/A   Clear
7:56 PM 79.0 °F - 55.9 °F 45% 29.34 in 10.0 mi South 15.0 mph - N/A   Clear
8:56 PM 75.0 °F - 55.9 °F 51% 29.36 in 10.0 mi SSE 11.5 mph - N/A   Clear
9:56 PM 69.1 °F - 55.9 °F 63% 29.38 in 9.0 mi SE 8.1 mph - N/A   Clear
10:56 PM 66.9 °F - 57.9 °F 73% 29.37 in 9.0 mi ESE 9.2 mph - N/A   Clear
11:56 PM 64.9 °F - 57.0 °F 75% 29.36 in 8.0 mi ESE 9.2 mph - N/A   Clear